Weather History for Alexandria Esle, LA

Change the Weather History Date:

Saturday, May 11, 2013

  Actual Average Record
Temperature  
Mean Temperature 72 °F -  
Max Temperature 84 °F 83 °F 92 °F (1963)
Min Temperature 62 °F 61 °F 43 °F (1961)
Cooling Degree Days 7    
Growing Degree Days 22 (Base 50)    
Moisture  
Dew Point 62 °F    
Average Humidity 81    
Maximum Humidity 96    
Minimum Humidity 49    
Precipitation  
Precipitation 0.02 in - - ()
Sea Level Pressure  
Sea Level Pressure 30.01 in    
Wind  
Wind Speed 1 mph (NW)    
Max Wind Speed 8 mph    
Max Gust Speed -    
Visibility 7 miles    
Events Fog , Rain    
Averages and records for this station are not official NWS values.
T = Trace of Precipitation, MM = Missing Value Source: NWS Daily Summary

Daily Weather History Graph

Daily Weather History Graph

Search for Another Location

Airport:

Trip Planner

Search our weather history database for the weather conditions in past years. The results will help you decide how hot, cold, wet, or windy it might be!

Date:

Astronomy

May. 11, 2013 Rise Set
Actual Time 6:15 AM CDT 7:55 PM CDT
Civil Twilight 5:49 AM CDT 8:22 PM CDT
Nautical Twilight 5:17 AM CDT 8:54 PM CDT
Astronomical Twilight 4:44 AM CDT 9:27 PM CDT
Moon 7:25 AM CDT (5/11) 9:34 PM CDT (5/11)
Length of Visible Light 14h 33m
Length of Day
13h 40m
Waxing Crescent, 3% of the Moon is Illuminated
May 11
Waxing Crescent
May 17
First Quarter
May 24
Full
May 31
Last Quarter
Jun 8
New

Hourly Weather History & Observations

Time (CDT) Temp. Heat Index Dew Point Humidity Pressure Visibility Wind Dir Wind Speed Gust Speed Precip Events Conditions
12:18 AM 62.6 °F - 60.8 °F 94% 30.00 in 1.8 mi Calm Calm - N/A   Clear
12:34 AM 62.6 °F - 60.8 °F 94% 30.00 in 1.8 mi Calm Calm - N/A   Partly Cloudy
12:38 AM 62.6 °F - 60.8 °F 94% 30.00 in 3.0 mi Calm Calm - N/A   Partly Cloudy
12:51 AM 62.6 °F - 60.8 °F 94% 30.00 in 2.0 mi Calm Calm - N/A   Partly Cloudy
12:53 AM 63.0 °F - 61.0 °F 93% 30.00 in 2.0 mi Calm Calm - N/A   Partly Cloudy
1:07 AM 62.6 °F - 60.8 °F 94% 29.99 in 1.0 mi SE 3.5 mph - N/A   Mist
1:32 AM 62.6 °F - 60.8 °F 94% 29.99 in 0.5 mi Calm Calm - N/A Fog Fog
1:46 AM 62.6 °F - 60.8 °F 94% 29.98 in 2.0 mi Calm Calm - N/A   Mostly Cloudy
1:53 AM 62.1 °F - 60.1 °F 93% 29.99 in 4.0 mi Calm Calm - N/A   Mostly Cloudy
2:00 AM 62.6 °F - 60.8 °F 94% 30.01 in 4.0 mi Calm Calm - N/A   Scattered Clouds
2:53 AM 64.0 °F - 62.1 °F 93% 29.99 in 9.0 mi Calm Calm - N/A   Mostly Cloudy
3:23 AM 64.4 °F - 62.6 °F 94% 30.00 in 7.0 mi South 3.5 mph - N/A   Mostly Cloudy
3:53 AM 64.0 °F - 63.0 °F 96% 29.97 in 6.0 mi ESE 4.6 mph - 0.01 in Rain Light Rain
4:06 AM 64.4 °F - 62.6 °F 94% 29.96 in 7.0 mi Calm Calm - 0.01 in Rain Light Rain
4:14 AM 64.4 °F - 62.6 °F 94% 29.95 in 7.0 mi Calm Calm - 0.01 in Rain Light Rain
4:53 AM 64.9 °F - 62.1 °F 90% 29.93 in 6.0 mi Calm Calm - 0.01 in   Partly Cloudy
5:53 AM 64.0 °F - 62.1 °F 93% 29.94 in 5.0 mi Calm Calm - N/A   Clear
6:38 AM 64.4 °F - 62.6 °F 94% 29.98 in 7.0 mi West 4.6 mph - N/A   Scattered Clouds
6:53 AM 64.9 °F - 63.0 °F 93% 29.98 in 7.0 mi WSW 4.6 mph - N/A   Mostly Cloudy
7:53 AM 66.0 °F - 64.0 °F 93% 30.01 in 8.0 mi WNW 4.6 mph - N/A   Overcast
8:53 AM 70.0 °F - 64.9 °F 84% 30.02 in 10.0 mi Calm Calm - N/A   Scattered Clouds
9:53 AM 73.9 °F - 64.0 °F 71% 30.01 in 10.0 mi Calm Calm - N/A   Clear
10:53 AM 77.0 °F - 62.1 °F 60% 30.00 in 10.0 mi NNW 5.8 mph - N/A   Partly Cloudy
11:53 AM 78.1 °F - 63.0 °F 60% 30.01 in 10.0 mi Variable 3.5 mph - N/A   Partly Cloudy
12:09 PM 77.0 °F - 62.6 °F 61% 30.03 in 10.0 mi Calm Calm - N/A   Mostly Cloudy
12:35 PM 78.8 °F - 62.6 °F 57% 30.04 in 10.0 mi Calm Calm - N/A   Mostly Cloudy
12:53 PM 79.0 °F - 63.0 °F 58% 30.04 in 10.0 mi NW 3.5 mph - N/A   Mostly Cloudy
1:53 PM 81.0 °F 82.2 °F 63.0 °F 54% 30.03 in 10.0 mi Variable 4.6 mph - N/A   Partly Cloudy
2:53 PM 82.9 °F 83.7 °F 62.1 °F 49% 30.01 in 10.0 mi NW 4.6 mph - N/A   Partly Cloudy
3:53 PM 78.1 °F - 64.0 °F 62% 30.00 in 10.0 mi NNE 8.1 mph - N/A   Scattered Clouds
4:53 PM 80.1 °F 81.9 °F 64.9 °F 60% 30.00 in 10.0 mi NE 4.6 mph - N/A   Scattered Clouds
5:53 PM 81.0 °F 81.6 °F 60.1 °F 49% 29.99 in 10.0 mi Variable 5.8 mph - N/A   Partly Cloudy
6:53 PM 78.1 °F - 60.1 °F 54% 30.00 in 10.0 mi North 4.6 mph - N/A   Clear
7:53 PM 70.0 °F - 64.0 °F 81% 30.03 in 10.0 mi Calm Calm - N/A   Clear
8:53 PM 68.0 °F - 60.8 °F 78% 30.05 in 10.0 mi Calm Calm - N/A   Clear
9:53 PM 64.0 °F - 62.1 °F 93% 30.07 in 10.0 mi Calm Calm - N/A   Clear
10:53 PM 63.0 °F - 61.0 °F 93% 30.08 in 10.0 mi Calm Calm - N/A   Clear
11:53 PM 62.1 °F - 60.1 °F 93% 30.10 in 3.0 mi Calm Calm - N/A   Clear
11:56 PM 62.6 °F - 59.0 °F 88% 30.10 in 1.8 mi Calm Calm - N/A   Clear